This is the latest recevied weather packets stored in our database for station/object OE9XVI-6. If no packets are shown the sender has not sent any weather packets the latest 10 day(s).
| Time | Temp. | Humidity | Pressure | Rain* | Wind** | Luminosity | Snow |
|---|---|---|---|---|---|---|---|
| 1778160408 | 16.67° C | 63% | 1015.1 hPa | 0 mm | - | - | - |
| 1778159808 | 15° C | 68% | 1015.1 hPa | 0 mm | - | - | - |
| 1778159208 | 14.44° C | 69% | 1015.3 hPa | 0 mm | - | - | - |
| 1778158608 | 13.33° C | 75% | 1015.1 hPa | 0 mm | - | - | - |
| 1778158008 | 11.67° C | 75% | 1015 hPa | 0 mm | - | - | - |
| 1778157408 | 12.78° C | 76% | 1015 hPa | 0 mm | - | - | - |
| 1778156808 | 11.67° C | 82% | 1015 hPa | 0 mm | - | - | - |
| 1778156208 | 10° C | 79% | 1014.8 hPa | 0 mm | - | - | - |
| 1778155608 | 9.44° C | 86% | 1014.9 hPa | 0 mm | - | - | - |
| 1778155008 | 9.44° C | 85% | 1014.8 hPa | 0 mm | - | - | - |
| 1778154408 | 10° C | 85% | 1014.9 hPa | 0 mm | - | - | - |
| 1778153808 | 10° C | 83% | 1014.8 hPa | 0 mm | - | - | - |
| 1778153208 | 10.56° C | 82% | 1014.8 hPa | 0 mm | - | - | - |
| 1778152608 | 10° C | 80% | 1014.8 hPa | 0 mm | - | - | - |
| 1778152008 | 10.56° C | 78% | 1014.9 hPa | 0 mm | - | - | - |
| 1778151408 | 11.11° C | 75% | 1014.9 hPa | 0 mm | - | - | - |
| 1778150808 | 11.67° C | 77% | 1015 hPa | 0 mm | - | - | - |
| 1778150208 | 11.11° C | 74% | 1015 hPa | 0 mm | - | - | - |
| 1778149608 | 10.56° C | 76% | 1015 hPa | 0 mm | - | - | - |
| 1778149008 | 11.11° C | 75% | 1015.1 hPa | 0 mm | - | - | - |
| 1778148409 | 11.11° C | 73% | 1015.1 hPa | 0 mm | - | - | - |
| 1778147808 | 10.56° C | 75% | 1015.1 hPa | 0 mm | - | - | - |
| 1778147208 | 10.56° C | 72% | 1015 hPa | 0 mm | - | - | - |
| 1778146608 | 10° C | 79% | 1015.1 hPa | 0 mm | - | - | - |
| 1778146008 | 10° C | 82% | 1015 hPa | 0 mm | - | - | - |
* Rain latest hour (hover to see other rain measurements)
** Current wind speed in m/s (hover to see current wind gust speed)